Wind_Speed
5 6 7 8 9 10 12 13 15 16 18 19 21 23 24 26 27 28 30 31 33 35 37 39 41 42 43 43 43 43 42 40 38 36 33 31 28 26 25 24 25 26 27
5 6 8 10 11 13 15 17 18 20 22 23 25 26 28 29 30 31 33 34 35 35 36 38 39 42 44 46 47 47 47 46 44 42 39 37 34 32 29 27 27 27 28
8 10 12 14 16 18 20 22 24 26 28 29 31 32 33 34 36 37 38 39 39 40 41 41 41 42 43 44 47 49 50 50 50 48 46 43 40 37 35 32 30 29 30
12 14 17 19 21 24 26 28 30 31 33 34 36 37 39 40 41 42 43 44 45 46 46 47 47 47 46 46 47 48 50 52 53 53 53 50 47 44 41 38 35 33 32
17 19 22 24 26 28 30 32 34 36 37 39 40 42 43 45 46 47 48 49 50 51 51 52 52 53 53 52 51 51 50 51 53 56 56 56 54 51 47 44 41 38 36
21 24 26 28 30 32 34 36 37 39 41 43 44 46 48 49 51 52 53 54 55 55 56 57 57 57 58 58 57 57 55 54 54 55 57 59 59 57 54 51 47 44 41
26 28 30 32 34 35 37 38 40 42 45 47 49 51 53 54 56 57 58 59 60 61 62 62 62 63 62 62 62 62 62 60 59 58 58 59 61 61 60 58 54 50 46
29 31 33 34 36 37 39 41 44 46 49 51 53 55 58 60 62 63 65 66 67 68 68 69 69 68 68 68 67 67 67 66 65 64 63 62 61 62 64 63 60 56 52
32 33 35 36 38 40 42 45 48 50 53 55 58 60 62 65 67 69 71 72 74 75 76 76 76 76 75 74 73 73 72 71 70 69 69 68 66 64 64 66 65 63 59
33 35 37 39 41 44 47 50 52 55 58 60 63 65 68 70 72 75 77 79 80 81 82 82 82 82 82 81 80 79 78 77 76 75 74 73 72 69 67 67 67 67 65
34 37 39 42 44 47 51 54 57 59 62 65 67 70 73 76 78 81 83 85 86 88 89 89 89 89 88 88 87 85 84 83 81 80 79 78 77 75 73 70 69 69 69
37 39 42 45 48 51 54 57 60 63 66 69 72 75 78 81 84 87 89 91 92 94 95 96 97 96 96 95 94 92 91 89 87 85 84 83 82 80 79 76 73 71 71
39 42 45 48 51 54 57 60 62 65 69 72 76 79 82 85 88 91 94 96 98 99 100 100 100 101 101 101 100 99 98 96 94 92 90 88 87 85 84 82 79 76 73
42 45 48 51 54 57 59 62 65 68 72 76 80 83 87 90 93 96 99 101 101 101 100 100 99 98 99 99 100 101 101 102 101 99 97 94 92 90 89 87 85 82 78
44 47 50 53 56 59 61 65 68 72 76 80 84 88 91 95 98 100 101 100 99 97 95 93 92 91 90 91 92 94 97 100 102 103 103 101 98 96 94 92 90 88 84
46 49 52 54 57 60 64 67 71 75 79 83 87 91 95 97 99 98 97 94 90 88 86 85 84 83 83 83 84 86 88 92 96 100 104 104 104 102 100 97 95 93 90
48 50 53 55 59 62 66 70 74 78 82 86 90 94 96 96 95 93 89 86 83 82 81 79 78 77 77 76 76 77 80 83 87 93 99 103 105 106 105 103 101 98 95
48 51 54 57 61 65 69 72 76 80 84 88 92 94 94 92 89 86 83 81 80 79 77 75 74 72 70 69 69 69 71 74 79 84 91 98 103 106 108 108 106 103 100
49 52 55 59 63 67 71 75 78 82 86 90 92 92 90 87 83 81 80 79 78 76 75 74 73 71 69 67 65 64 65 66 70 75 82 90 98 104 108 110 110 108 105
50 53 57 61 65 69 73 76 80 84 88 90 91 89 86 82 80 79 78 77 76 76 76 76 75 73 72 70 67 65 63 62 64 67 73 82 91 99 105 109 111 111 109
51 55 59 63 67 70 74 77 81 85 88 89 88 85 82 79 78 77 76 75 76 76 76 74 72 70 69 70 68 66 63 62 62 63 66 73 83 93 100 105 110 113 113
53 57 61 65 68 71 74 78 82 85 87 87 84 81 79 77 76 75 74 75 76 75 72 69 66 64 62 62 64 65 64 62 64 62 62 67 75 85 94 100 107 112 115
55 59 63 66 69 72 75 79 82 85 86 84 81 78 76 75 75 74 74 75 74 73 69 65 61 57 54 52 55 59 62 63 62 61 62 63 67 75 86 95 102 110 115
56 60 64 67 70 72 76 79 82 84 83 81 78 76 74 74 73 73 73 74 72 70 66 62 56 51 45 42 44 49 55 60 61 60 60 60 61 66 75 87 97 105 113
57 61 65 68 70 73 76 79 81 82 81 79 76 74 73 72 72 72 72 72 70 67 62 58 52 45 37 31 31 38 45 53 57 57 58 58 58 60 67 77 89 98 108
58 62 66 68 70 73 76 79 81 81 79 76 73 72 71 71 71 71 71 69 67 63 58 53 47 40 32 24 20 25 34 43 50 54 55 55 55 56 60 67 79 91 102
Wind_Direction
317 313 311 309 307 305 304 302 299 297 295 292 290 289 287 285 283 282 280 277 274 271 268 265 263 260 258 257 256 256 256 257 258 258 258 257 254 251 247 243 240 237 235
328 322 318 314 311 309 306 303 300 298 296 294 292 290 288 287 285 284 282 281 279 277 274 271 268 265 262 258 256 254 254 253 254 255 255 255 254 251 247 243 240 238 236
324 320 317 314 311 308 306 303 301 299 296 294 292 290 288 286 285 283 281 280 279 277 275 274 271 269 266 263 260 256 254 252 252 252 252 252 252 251 249 245 240 238 237
320 317 314 312 310 307 305 303 301 298 296 295 293 291 289 288 286 284 282 280 278 277 275 273 271 270 268 265 263 260 257 254 252 250 249 249 249 249 249 246 242 238 236
316 314 312 310 308 306 304 302 301 299 297 296 295 293 292 290 288 286 284 282 280 278 275 273 271 269 268 265 263 261 259 257 254 251 249 248 247 246 246 246 244 240 236
314 312 311 309 308 306 304 303 302 301 299 298 297 295 294 292 290 288 286 284 282 279 277 274 272 269 267 265 263 261 259 257 255 253 250 248 246 245 244 244 243 242 238
314 312 311 309 307 306 305 304 303 302 301 300 299 297 296 294 292 290 288 286 284 281 279 276 273 271 268 265 263 261 259 256 254 253 251 249 247 245 244 242 241 241 239
313 311 310 308 307 306 306 305 305 304 303 302 301 299 298 296 295 292 290 288 285 283 280 278 275 272 269 266 263 261 258 256 254 252 250 249 247 245 244 242 241 239 239
312 311 310 310 309 309 308 308 307 306 305 304 303 301 299 298 296 294 291 289 286 284 281 279 276 273 270 267 264 261 258 256 253 251 249 248 247 245 243 242 241 239 238
313 312 313 313 312 312 311 310 310 308 307 306 304 302 300 298 296 294 292 290 287 285 282 279 276 273 270 267 264 261 258 255 253 250 248 247 245 244 242 241 240 239 237
314 314 314 314 313 313 313 312 311 309 308 306 304 302 300 298 296 294 292 290 288 286 283 280 277 274 271 268 264 261 258 255 252 250 248 245 244 242 241 240 239 238 237
316 316 316 315 315 314 313 312 311 309 308 306 304 302 301 299 297 295 293 291 289 287 285 282 279 276 272 269 265 262 258 255 252 249 247 245 243 241 240 238 237 237 236
317 317 317 316 315 314 313 312 310 309 307 306 304 303 301 300 298 296 294 292 291 289 287 284 282 279 275 271 267 263 259 256 252 249 245 243 241 240 238 237 236 235 234
318 318 318 317 316 314 313 311 310 309 308 307 306 305 303 302 300 299 297 296 294 292 289 286 283 280 277 273 269 265 261 257 252 249 245 242 240 239 237 235 234 233 232
319 318 318 316 315 314 313 312 311 311 310 309 308 307 306 304 303 301 300 298 296 294 291 288 284 280 276 272 269 265 261 257 253 249 245 242 239 237 235 234 232 231 230
319 318 317 316 315 314 314 314 313 313 312 311 310 309 308 306 305 303 302 300 298 295 292 289 285 281 277 273 268 264 260 256 252 249 245 242 239 236 234 232 231 229 228
319 318 317 316 316 316 316 316 316 315 314 313 312 311 309 309 308 306 305 303 300 298 295 291 287 283 279 275 270 265 260 255 251 247 244 241 238 235 232 230 229 228 227
318 318 317 318 318 318 319 318 318 317 316 315 314 313 312 312 311 310 309 306 304 301 298 294 290 285 280 274 269 265 260 255 250 246 242 238 236 233 231 229 227 226 225
319 319 320 320 320 321 321 320 320 319 318 317 316 316 316 315 315 314 312 310 307 304 300 296 291 285 279 273 267 263 259 255 250 245 240 236 233 231 229 227 225 224 223
321 322 322 322 323 323 323 322 321 320 320 319 319 319 319 319 318 317 315 313 310 307 303 298 292 285 279 272 265 260 256 253 250 245 240 235 232 229 227 225 223 222 221
324 324 325 325 324 324 324 323 323 322 321 321 322 322 322 322 321 320 318 316 314 311 307 302 296 288 280 271 263 256 252 249 246 244 241 236 232 228 225 223 221 220 219
326 326 327 326 326 326 325 325 324 324 323 324 325 325 325 325 324 324 322 321 319 316 313 308 302 294 284 273 263 254 247 243 242 241 240 237 233 228 224 222 220 217 216
328 328 328 328 327 327 327 326 326 326 326 327 327 328 328 328 328 327 327 326 325 323 321 317 311 303 290 276 263 252 243 238 238 237 237 236 234 230 225 222 219 216 214
329 329 329 329 329 329 329 328 329 329 329 330 330 330 331 331 331 331 331 331 330 330 328 326 321 314 301 282 264 251 241 235 233 232 234 234 233 231 227 223 219 216 214
331 331 331 330 331 331 331 331 331 331 332 332 333 333 334 334 335 335 336 336 336 335 334 333 331 326 315 295 268 249 238 231 229 228 230 232 232 231 228 224 220 216 214
333 332 332 332 332 333 333 333 333 334 334 335 335 336 337 337 338 339 340 340 340 340 339 340 341 340 334 316 280 249 235 228 226 225 225 229 231 231 228 225 221 217 214
Height
5878 5876 5875 5874 5873 5872 5871 5869 5868 5866 5865 5863 5862 5860 5858 5857 5855 5854 5852 5851 5850 5848 5848 5847 5847 5846 5846 5847 5847 5847 5848 5849 5850 5851 5852 5853 5855 5856 5858 5860 5861 5862 5864
5877 5876 5874 5873 5872 5870 5869 5867 5865 5863 5861 5859 5858 5856 5854 5852 5850 5849 5847 5845 5844 5842 5841 5840 5839 5839 5839 5839 5839 5840 5841 5842 5843 5844 5845 5846 5848 5850 5852 5854 5856 5858 5859
5876 5875 5873 5872 5870 5868 5866 5864 5861 5859 5857 5855 5852 5850 5848 5846 5844 5842 5840 5839 5837 5835 5834 5833 5832 5831 5831 5831 5831 5831 5832 5833 5835 5836 5837 5839 5841 5842 5845 5847 5849 5852 5854
5875 5873 5871 5869 5867 5864 5862 5859 5857 5854 5851 5849 5846 5843 5841 5838 5836 5834 5832 5830 5828 5827 5825 5824 5823 5822 5822 5822 5822 5822 5823 5824 5826 5826 5828 5830 5832 5834 5836 5839 5842 5845 5847
5872 5870 5868 5865 5863 5860 5857 5854 5851 5848 5845 5842 5839 5835 5832 5829 5827 5824 5822 5820 5818 5816 5814 5813 5812 5812 5811 5811 5812 5812 5813 5814 5815 5816 5818 5820 5822 5825 5827 5830 5833 5837 5840
5869 5867 5864 5861 5858 5855 5851 5848 5844 5841 5837 5834 5830 5826 5823 5819 5816 5813 5810 5807 5805 5803 5801 5800 5799 5799 5799 5799 5799 5800 5801 5803 5804 5805 5807 5809 5811 5814 5817 5821 5824 5827 5831
5865 5862 5859 5856 5852 5849 5845 5841 5837 5833 5829 5824 5820 5816 5811 5807 5803 5800 5796 5793 5791 5788 5786 5785 5784 5784 5784 5784 5784 5785 5787 5789 5791 5793 5794 5796 5799 5802 5806 5810 5814 5818 5822
5860 5857 5854 5850 5846 5842 5838 5834 5829 5825 5820 5815 5809 5804 5799 5794 5789 5785 5780 5777 5773 5771 5769 5767 5766 5765 5766 5766 5767 5768 5770 5772 5775 5778 5780 5783 5786 5790 5793 5798 5802 5807 5811
5855 5852 5848 5843 5839 5835 5830 5825 5820 5815 5809 5803 5797 5791 5785 5779 5773 5768 5763 5758 5754 5751 5748 5746 5745 5745 5745 5745 5747 5749 5752 5754 5756 5760 5764 5767 5771 5776 5780 5784 5789 5795 5799
5850 5845 5841 5836 5831 5826 5821 5815 5809 5803 5797 5790 5784 5777 5770 5764 5757 5750 5743 5738 5732 5728 5725 5722 5721 5720 5721 5722 5723 5726 5729 5733 5736 5741 5745 5749 5755 5760 5765 5770 5775 5781 5787
5844 5839 5834 5829 5823 5817 5811 5805 5798 5791 5784 5777 5770 5762 5755 5747 5739 5731 5723 5715 5709 5703 5698 5695 5693 5692 5693 5695 5697 5700 5703 5708 5713 5718 5724 5730 5735 5741 5748 5754 5760 5766 5773
5837 5832 5827 5821 5814 5808 5801 5794 5787 5780 5772 5764 5756 5747 5738 5729 5719 5710 5701 5692 5683 5676 5670 5665 5662 5660 5661 5663 5667 5670 5674 5680 5687 5693 5701 5707 5714 5721 5728 5736 5744 5751 5758
5831 5825 5819 5812 5806 5799 5792 5784 5776 5768 5759 5750 5740 5730 5720 5709 5697 5686 5675 5665 5656 5647 5639 5634 5629 5625 5625 5627 5631 5635 5641 5648 5656 5665 5674 5682 5690 5698 5707 5716 5725 5733 5741
5824 5818 5811 5804 5797 5790 5782 5774 5765 5755 5745 5734 5723 5711 5699 5686 5673 5660 5647 5635 5624 5615 5606 5600 5595 5591 5589 5589 5592 5597 5604 5612 5622 5632 5644 5654 5663 5673 5684 5694 5704 5714 5723
5817 5810 5803 5796 5788 5780 5772 5762 5752 5741 5729 5717 5704 5690 5676 5661 5646 5632 5618 5605 5594 5583 5574 5567 5561 5558 5556 5555 5556 5559 5565 5573 5584 5595 5609 5622 5635 5646 5658 5670 5681 5692 5704
5810 5803 5795 5788 5779 5770 5760 5750 5738 5726 5712 5699 5684 5668 5652 5636 5621 5606 5592 5578 5566 5556 5547 5539 5532 5527 5524 5523 5523 5525 5529 5536 5546 5557 5571 5587 5602 5616 5629 5643 5656 5669 5682
5803 5795 5787 5779 5770 5759 5748 5736 5723 5710 5696 5680 5664 5647 5629 5612 5596 5581 5567 5554 5541 5530 5520 5511 5504 5498 5494 5492 5492 5493 5496 5502 5510 5520 5533 5549 5566 5582 5598 5614 5629 5644 5659
5796 5788 5779 5769 5759 5747 5735 5722 5708 5694 5678 5661 5644 5626 5608 5590 5573 5558 5544 5530 5517 5505 5494 5485 5477 5472 5467 5465 5464 5465 5467 5472 5478 5487 5498 5513 5529 5546 5564 5582 5600 5618 5634
5788 5779 5770 5759 5747 5735 5721 5707 5692 5677 5660 5642 5623 5604 5586 5569 5553 5537 5522 5508 5494 5482 5470 5460 5451 5445 5441 5439 5438 5440 5442 5445 5450 5457 5467 5479 5493 5510 5529 5550 5570 5590 5609
5780 5771 5760 5748 5736 5723 5709 5693 5677 5660 5642 5623 5604 5585 5567 5551 5535 5519 5503 5487 5473 5459 5446 5433 5423 5416 5411 5409 5411 5414 5418 5422 5425 5431 5439 5449 5461 5477 5495 5517 5539 5560 5580
5772 5761 5750 5738 5725 5711 5697 5681 5664 5646 5627 5607 5587 5568 5551 5534 5518 5501 5485 5469 5452 5436 5420 5405 5392 5384 5379 5377 5380 5386 5394 5399 5403 5408 5415 5423 5434 5447 5465 5485 5506 5528 5552
5763 5752 5740 5728 5714 5700 5685 5669 5651 5632 5612 5592 5572 5553 5536 5519 5502 5485 5467 5450 5431 5414 5396 5379 5364 5354 5348 5345 5348 5355 5366 5376 5378 5388 5395 5401 5410 5423 5439 5456 5476 5499 5522
5755 5743 5731 5718 5704 5689 5673 5656 5638 5618 5597 5578 5559 5541 5523 5505 5487 5469 5451 5432 5412 5392 5374 5357 5341 5329 5321 5319 5319 5326 5338 5349 5358 5369 5375 5382 5391 5402 5415 5430 5449 5470 5493
5746 5734 5721 5708 5693 5678 5662 5644 5625 5606 5586 5566 5547 5529 5510 5492 5474 5456 5437 5417 5396 5376 5357 5340 5323 5309 5300 5296 5297 5302 5313 5326 5338 5349 5357 5365 5374 5383 5394 5408 5425 5445 5467
5738 5725 5712 5698 5683 5667 5650 5632 5613 5593 5573 5554 5536 5518 5500 5482 5463 5444 5425 5404 5384 5364 5346 5328 5312 5298 5287 5281 5281 5286 5295 5307 5319 5331 5341 5350 5359 5368 5378 5390 5405 5423 5442
5729 5716 5703 5688 5672 5656 5639 5621 5602 5582 5563 5544 5526 5509 5491 5473 5454 5435 5415 5395 5375 5356 5338 5322 5307 5293 5282 5276 5274 5277 5285 5295 5305 5317 5328 5336 5345 5354 5364 5374 5388 5403 5422